Location: Las Vegas
(36.1750°N, 115.1360°W)
Time: 04:57:47
(UTC-07:00)

Amateur Radio Satellites - All Passes

Search period start: 01 July 2015 04:27
Search period end: 02 July 2015 04:27
Location: Las Vegas, 36.1750°N, 115.1360°W

Satellite Date Start Highest point End Downlink Frequencies (MHz)
Time Altitude Azimuth
MOZHAYETS 4 01 Jul 04:34:16 04:38:50 83° 258° (WSW) 04:43:26
YUBILEINY 01 Jul 04:37:24 04:45:52 53° 283° (WNW) 04:54:18 435.215
CUBESAT XI-V 01 Jul 04:53:25 04:55:01 12° 66° (ENE) 04:56:54 437.345
JAS-2 01 Jul 05:12:13 05:18:09 37° 289° (WNW) 05:24:37 435.910
Cosmos 2504 01 Jul 05:35:26 05:42:01 39° 90° (E) 05:48:35 435.465 / 435.565
HORYU 2 01 Jul 05:40:15 05:43:17 18° 292° (WNW) 05:46:11 437.375
AO-7 01 Jul 05:51:46 05:59:37 45° 295° (WNW) 06:07:20 29.400- 29.500
STRAND 1 01 Jul 05:52:33 05:56:08 20° 67° (ENE) 05:59:55 437.568
CUBESAT XI-V 01 Jul 06:27:18 06:31:58 65° 260° (W) 06:36:39 437.345
CUTE-I 01 Jul 06:31:48 06:36:50 41° 98° (E) 06:41:52 437.470
RS-15 01 Jul 06:35:35 06:42:18 17° 342° (NNW) 06:48:50 29.354- 29.394
PRISM 01 Jul 06:42:05 06:46:09 57° 74° (ENE) 06:50:16 437.425
DANDE 01 Jul 06:56:22 06:58:54 12° 89° (E) 07:01:48 436.750
Cubesat XI-IV 01 Jul 07:04:35 07:10:00 86° 100° (E) 07:15:22 437.490
Cosmos 2504 01 Jul 07:29:08 07:35:31 31° 287° (WNW) 07:41:41 435.465 / 435.565
STRAND 1 01 Jul 07:30:10 07:35:03 44° 261° (W) 07:39:58 437.568
AUBIESAT-1 01 Jul 07:32:15 07:34:22 17° 65° (ENE) 07:36:38 437.475
BRITE-PL 01 Jul 07:36:59 07:39:27 15° 90° (E) 07:42:02 437.365/2234.400
O/OREOS (USA 219) 01 Jul 07:44:24 07:48:40 49° 107° (ESE) 07:53:00 437.305
CUSAT 1 01 Jul 07:56:38 08:03:40 55° 97° (E) 08:09:14 437.405
M-CUBED/EXP-1 PRIME 01 Jul 08:01:48 08:04:59 51° 71° (ENE) 08:08:15 437.505
VERMONT LUNAR 01 Jul 08:06:08 08:08:44 25° 149° (SSE) 08:11:23 437.305
CUTE-I 01 Jul 08:12:30 08:16:41 23° 293° (WNW) 08:20:43 437.470
HO-68 01 Jul 08:15:04 08:20:24 23° 93° (E) 08:26:00 435.675
BEESAT 3 01 Jul 08:17:02 08:21:04 64° 301° (WNW) 08:25:08 437.485
BEESAT 2 01 Jul 08:23:58 08:28:02 69° 301° (WNW) 08:32:10 435.950
DOVE 4 01 Jul 08:32:31 08:35:46 23° 94° (E) 08:39:07 437.250
DANDE 01 Jul 08:33:56 08:41:54 84° 98° (E) 08:48:13 436.750
AAUSAT CUBESAT 2 01 Jul 08:34:03 08:35:05 11° 90° (E) 08:36:22 437.432
Cubesat XI-IV 01 Jul 08:47:45 08:49:27 11° 298° (WNW) 08:50:48 437.490
CUTE 1.7 + AOD 2 01 Jul 08:52:39 08:56:37 37° 97° (E) 09:00:36 437.475
RS-15 01 Jul 08:54:41 09:01:16 17° 18° (NNE) 09:08:22 29.354- 29.394
COMPASS 1 01 Jul 08:54:52 08:58:18 24° 95° (E) 09:01:48 437.405
CANX-2 01 Jul 08:55:18 08:59:24 45° 98° (E) 09:03:32 2200.000
ISS 01 Jul 08:57:46 09:00:59 70° 137° (SE) 09:04:13 145.825
AUBIESAT-1 01 Jul 09:06:31 09:09:04 20° 260° (W) 09:11:35 437.475
GOMX 1 01 Jul 09:07:51 09:12:04 75° 283° (WNW) 09:16:11 467.674
PHONESAT 2.4 01 Jul 09:09:25 09:11:35 16° 145° (SE) 09:13:49 2401.200-2431.200
GONETS M04 01 Jul 09:12:25 09:21:01 63° 92° (E) 09:29:39
BRITE-PL 01 Jul 09:14:15 09:18:16 35° 288° (WNW) 09:22:03 437.365/2234.400
AIST 2 01 Jul 09:18:20 09:22:35 76° 300° (WNW) 09:26:52 435.215
CUBEBUG 2 01 Jul 09:21:14 09:23:53 17° 93° (E) 09:26:44 437.445
O/OREOS (USA 219) 01 Jul 09:25:54 09:28:27 14° 304° (WNW) 09:30:49 437.305
UNISAT 6 01 Jul 09:36:01 09:39:01 19° 70° (ENE) 09:42:08 437.425
ZACube-1 01 Jul 09:39:26 09:42:02 16° 92° (E) 09:44:50 437.345
CUSAT 1 01 Jul 09:41:13 09:46:21 21° 286° (WNW) 09:50:28 437.405
VERMONT LUNAR 01 Jul 09:42:25 09:45:31 64° 343° (NNW) 09:48:40 437.305
CINEMA 3 01 Jul 09:44:12 09:48:21 73° 101° (E) 09:52:33 145.822/145.860
SEEDS 01 Jul 09:46:39 09:50:52 59° 284° (WNW) 09:55:02 437.485
Oscar 11 01 Jul 09:55:17 09:59:27 46° 98° (E) 10:03:39 145.826/435.025
DUCHIFAT 1 01 Jul 09:55:39 09:57:13 12° 67° (ENE) 09:59:00 145.980
POLYITAN 1 01 Jul 09:55:44 09:57:36 13° 68° (ENE) 09:59:40 437.675
Cosmos 2499 01 Jul 10:00:08 10:04:48 20° 85° (E) 10:09:47 435.465 / 435.565
HO-68 01 Jul 10:01:36 10:08:36 58° 290° (WNW) 10:15:34 435.675
AAUSAT CUBESAT 2 01 Jul 10:06:57 10:11:02 51° 285° (WNW) 10:15:07 437.432
DOVE 4 01 Jul 10:10:11 10:13:32 23° 289° (WNW) 10:16:46 437.250
FUNcube-1 01 Jul 10:16:06 10:20:07 44° 99° (E) 10:24:12 145.935
UWE-3 01 Jul 10:18:44 10:22:54 66° 101° (E) 10:27:09 435.000/436.395/437.385
ANTELSAT 01 Jul 10:19:04 10:23:19 61° 75° (ENE) 10:27:34 437.575/2403.000
DANDE 01 Jul 10:21:03 10:25:26 16° 290° (WNW) 10:28:57 436.750
QB50P2 01 Jul 10:24:08 10:27:44 28° 71° (ENE) 10:31:23 145.880/145.840
POPSAT HIP 1 01 Jul 10:25:47 10:29:23 28° 72° (ENE) 10:33:04 437.405
BUGSAT 1 01 Jul 10:27:11 10:30:06 19° 70° (ENE) 10:33:07 437.445
HUMSAT D 01 Jul 10:27:12 10:30:34 24° 95° (E) 10:34:03 437.325/437.525
CUTE 1.7 + AOD 2 01 Jul 10:29:29 10:32:15 17° 291° (WNW) 10:34:53 437.475
COMPASS 1 01 Jul 10:30:28 10:33:53 24° 289° (WNW) 10:37:14 437.405
CANX-2 01 Jul 10:32:42 10:35:00 14° 292° (WNW) 10:37:06 2200.000
TIGRISAT 01 Jul 10:32:59 10:37:19 87° 78° (ENE) 10:41:36 435.000
ISS 01 Jul 10:35:44 10:37:43 15° 334° (NNW) 10:39:40 145.825
VELOX 1 01 Jul 10:39:53 10:42:15 15° 91° (E) 10:44:48 145.980
PHONESAT 2.4 01 Jul 10:45:50 10:49:17 84° 158° (SSE) 10:52:45 2401.200-2431.200
DELFI C3 01 Jul 10:47:10 10:51:10 57° 284° (WNW) 10:55:08 145.870
CUBEBUG 2 01 Jul 10:56:55 11:00:42 33° 287° (WNW) 11:04:30 437.445
DX 1 01 Jul 11:01:29 11:05:43 51° 100° (E) 11:09:57 434.975-435.025
QB50P1 01 Jul 11:04:30 11:08:45 84° 77° (ENE) 11:13:01 145.935-145.965
RS-15 01 Jul 11:06:49 11:17:53 47° 48° (NE) 11:29:30 29.354- 29.394
GONETS M04 01 Jul 11:11:25 11:18:34 26° 292° (WNW) 11:25:22
UNISAT 6 01 Jul 11:11:46 11:15:38 31° 263° (W) 11:19:26 437.425
50 SAT 01 Jul 11:14:10 11:17:53 43° 99° (E) 11:21:39 437.505
ZACube-1 01 Jul 11:14:43 11:18:32 34° 287° (WNW) 11:22:23 437.345
VERMONT LUNAR 01 Jul 11:19:49 11:22:45 35° 0° (N) 11:25:43 437.305
NANOSAT C BR1 01 Jul 11:20:11 11:24:24 63° 259° (WSW) 11:28:38 145.865
AISAT 01 Jul 11:24:16 11:28:34 50° 100° (E) 11:32:50 437.250
UKube-1 01 Jul 11:27:47 11:32:07 84° 284° (WNW) 11:36:26 .
DUCHIFAT 1 01 Jul 11:28:30 11:32:38 51° 260° (W) 11:36:47 145.980
POLYITAN 1 01 Jul 11:29:01 11:33:09 47° 261° (W) 11:37:15 437.675
Oscar 11 01 Jul 11:32:57 11:35:17 14° 292° (WNW) 11:37:26 145.826/435.025
ESTCUBE 1 01 Jul 11:43:27 11:47:54 52° 100° (E) 11:52:19 437.505/2401.250
Cosmos 2499 01 Jul 11:50:26 11:57:26 58° 281° (W) 12:04:23 435.465 / 435.565
CUBEBUG 1 01 Jul 11:53:24 11:57:42 56° 100° (E) 12:01:57 437.445
FUNcube-1 01 Jul 11:53:56 11:56:08 14° 292° (WNW) 11:58:09 145.935
QB50P2 01 Jul 12:00:21 12:03:38 21° 266° (W) 12:06:48 145.880/145.840
BUGSAT 1 01 Jul 12:01:32 12:05:22 32° 263° (W) 12:09:08 437.445
POPSAT HIP 1 01 Jul 12:02:01 12:05:17 21° 266° (W) 12:08:26 437.405
HUMSAT D 01 Jul 12:02:55 12:06:15 23° 289° (WNW) 12:09:29 437.325/437.525
VELOX 1 01 Jul 12:14:52 12:19:03 42° 287° (WNW) 12:23:11 145.980
Oscar 19 01 Jul 12:18:53 12:22:27 20° 67° (ENE) 12:26:11 437.125/150
PHONESAT 2.4 01 Jul 12:24:12 12:27:30 40° 354° (N) 12:30:48 2401.200-2431.200
TISAT 1 01 Jul 12:29:09 12:32:32 24° 95° (E) 12:35:57 437.305
DX 1 01 Jul 12:39:31 12:41:35 13° 294° (WNW) 12:43:25 434.975-435.025
50 SAT 01 Jul 12:50:37 12:52:11 12° 292° (WNW) 12:53:35 437.505
VERMONT LUNAR 01 Jul 12:56:50 12:59:59 61° 16° (NNE) 13:03:09 437.305
YUBILEINY 01 Jul 12:58:30 13:00:14 11° 58° (ENE) 13:02:47 435.215
AISAT 01 Jul 13:02:33 13:04:44 13° 294° (WNW) 13:06:43 437.250
SPROUT 01 Jul 13:08:48 13:13:04 69° 284° (WNW) 13:17:17 437.525
SWISSCUBE 01 Jul 13:10:26 13:12:10 12° 90° (E) 13:14:12 437.505
ITUPSAT 1 01 Jul 13:14:09 13:15:45 12° 89° (E) 13:17:40 437.325
RS-15 01 Jul 13:19:19 13:30:38 53° 249° (WSW) 13:42:09 29.354- 29.394
ESTCUBE 1 01 Jul 13:22:00 13:24:21 14° 293° (WNW) 13:26:30 437.505/2401.250
CUBEBUG 1 01 Jul 13:31:58 13:33:37 12° 294° (WNW) 13:35:01 437.445
Gurwin Techsat 1B 01 Jul 13:34:58 13:39:31 31° 70° (ENE) 13:44:12 435.225
Oscar 19 01 Jul 13:56:37 14:01:32 44° 261° (W) 14:06:25 437.125/150
ITAMSAT 1 01 Jul 14:00:20 14:05:23 53° 73° (ENE) 14:10:29 435.822/435.867
PHONESAT 2.4 01 Jul 14:02:29 14:05:53 49° 12° (NNE) 14:09:17 2401.200-2431.200
TISAT 1 01 Jul 14:04:51 14:08:14 23° 289° (WNW) 14:11:30 437.305
BEESAT 01 Jul 14:30:35 14:35:25 86° 103° (ESE) 14:40:13 436.000
VERMONT LUNAR 01 Jul 14:34:02 14:36:49 27° 211° (SSW) 14:39:35 437.305
SWISSCUBE 01 Jul 14:45:44 14:50:29 60° 286° (WNW) 14:55:11 437.505
ITUPSAT 1 01 Jul 14:49:21 14:54:08 61° 285° (WNW) 14:58:52 437.325
YUBILEINY 01 Jul 14:50:25 14:59:08 69° 81° (E) 15:07:53 435.215
PCSat 01 Jul 14:51:53 14:53:15 11° 104° (ESE) 14:55:01 145.827
AO-7 01 Jul 14:55:14 15:02:48 42° 64° (ENE) 15:10:30 29.400- 29.500
HORYU 2 01 Jul 14:58:51 15:02:26 26° 70° (ENE) 15:06:08 437.375
KKS-1 01 Jul 15:02:34 15:06:25 29° 96° (E) 15:10:18 437.445
AIST 1 01 Jul 15:02:45 15:05:14 16° 88° (E) 15:07:56
Cosmos 2491 01 Jul 15:06:40 15:14:58 49° 90° (E) 15:23:23 435.465 / 435.565
Gurwin Techsat 1B 01 Jul 15:14:54 15:19:29 29° 265° (W) 15:24:01 435.225
JAS-2 01 Jul 15:22:16 15:27:26 76° 76° (ENE) 15:32:42 435.910
ISS 01 Jul 15:27:41 15:30:29 26° 33° (NNE) 15:33:18 145.825
Cosmos 2504 01 Jul 15:33:12 15:34:44 11° 62° (ENE) 15:36:58 435.465 / 435.565
PHONESAT 2.4 01 Jul 15:40:33 15:43:56 48° 207° (SSW) 15:47:19 2401.200-2431.200
ITAMSAT 1 01 Jul 15:41:59 15:45:17 16° 269° (W) 15:48:20 435.822/435.867
STARS 01 Jul 16:02:31 16:06:55 88° 102° (ESE) 16:11:17 437.465
SO-50 01 Jul 16:04:33 16:04:38 10° 107° (ESE) 16:05:03 436.795
PCSat 01 Jul 16:30:40 16:36:05 79° 297° (WNW) 16:41:32 145.827
MOZHAYETS 4 01 Jul 16:32:27 16:36:26 28° 95° (E) 16:40:28
HORYU 2 01 Jul 16:35:23 16:39:02 25° 265° (W) 16:42:38 437.375
BEESAT 3 01 Jul 16:38:16 16:41:54 31° 54° (NE) 16:45:31 437.485
AIST 1 01 Jul 16:38:32 16:42:37 36° 282° (WNW) 16:46:41
KKS-1 01 Jul 16:39:28 16:42:55 22° 290° (WNW) 16:46:14 437.445
BEESAT 2 01 Jul 16:45:49 16:49:26 30° 53° (NE) 16:53:01 435.950
Cubesat XI-IV 01 Jul 16:47:34 16:49:45 13° 63° (ENE) 16:52:14 437.490
AO-7 01 Jul 16:47:49 16:55:36 41° 261° (W) 17:03:18 29.400- 29.500
YUBILEINY 01 Jul 16:48:51 16:55:16 22° 277° (W) 17:01:18 435.215
ISS 01 Jul 17:04:04 17:06:51 26° 228° (SW) 17:09:35 145.825
Cosmos 2491 01 Jul 17:04:19 17:12:09 33° 289° (WNW) 17:19:46 435.465 / 435.565
Cosmos 2504 01 Jul 17:21:53 17:29:36 73° 82° (E) 17:37:54 435.465 / 435.565
SO-50 01 Jul 17:39:53 17:44:34 76° 301° (WNW) 17:49:26 436.795
AIST 2 01 Jul 17:42:51 17:46:35 30° 53° (NE) 17:50:17 435.215
CUTE-I 01 Jul 17:50:55 17:56:05 52° 73° (ENE) 18:01:19 437.470
O/OREOS (USA 219) 01 Jul 17:56:46 18:01:15 61° 68° (ENE) 18:05:44 437.305
MOZHAYETS 4 01 Jul 18:09:45 18:13:34 25° 290° (WNW) 18:17:16
JUGNU 01 Jul 18:13:56 18:17:03 14° 173° (S) 18:20:11 437.505
BEESAT 3 01 Jul 18:16:45 18:19:39 19° 249° (WSW) 18:22:25 437.485
PCSat 01 Jul 18:18:26 18:20:30 12° 317° (NW) 18:22:17 145.827
Cubesat XI-IV 01 Jul 18:23:56 18:29:16 76° 257° (WSW) 18:34:41 437.490
BEESAT 2 01 Jul 18:24:17 18:27:20 20° 248° (WSW) 18:30:14 435.950
CUBESAT XI-V 01 Jul 18:26:54 18:31:15 38° 97° (E) 18:35:37 437.345
CUSAT 1 01 Jul 18:40:29 18:41:07 11° 71° (ENE) 18:41:51 437.405
HO-68 01 Jul 18:43:41 18:46:48 14° 57° (ENE) 18:50:22 435.675
BRITE-PL 01 Jul 18:44:13 18:48:01 20° 69° (ENE) 18:51:52 437.365/2234.400
SRMSAT 01 Jul 19:01:21 19:03:03 11° 168° (SSE) 19:04:49 437.500
Cosmos 2504 01 Jul 19:17:14 19:22:27 19° 275° (W) 19:27:24 435.465 / 435.565
DANDE 01 Jul 19:21:02 19:23:35 27° 75° (ENE) 19:25:54 436.750
AIST 2 01 Jul 19:21:48 19:24:59 21° 248° (WSW) 19:28:02 435.215
SO-50 01 Jul 19:24:47 19:26:04 11° 321° (NW) 19:27:07 436.795
GONETS M04 01 Jul 19:26:51 19:33:41 26° 69° (ENE) 19:40:48
CUTE-I 01 Jul 19:32:59 19:36:32 17° 269° (W) 19:39:52 437.470
DOVE 4 01 Jul 19:35:25 19:39:05 22° 71° (ENE) 19:42:45 437.250
O/OREOS (USA 219) 01 Jul 19:39:21 19:40:12 10° 260° (W) 19:40:44 437.305
STRAND 1 01 Jul 19:43:05 19:48:15 79° 101° (E) 19:53:23 437.568
CUTE 1.7 + AOD 2 01 Jul 19:43:44 19:46:42 19° 70° (ENE) 19:49:47 437.475
COMPASS 1 01 Jul 19:45:16 19:46:55 12° 68° (ENE) 19:48:46 437.405
CANX-2 01 Jul 19:46:14 19:49:31 23° 71° (ENE) 19:52:53 2200.000
JUGNU 01 Jul 20:01:55 20:05:20 16° 183° (S) 20:08:42 437.505
PRISM 01 Jul 20:02:12 20:06:20 57° 285° (WNW) 20:10:25 437.425
CUBESAT XI-V 01 Jul 20:05:06 20:08:26 19° 292° (WNW) 20:11:37 437.345
GOMX 1 01 Jul 20:12:09 20:17:28 85° 79° (E) 20:22:30 467.674
CUBEBUG 2 01 Jul 20:18:53 20:20:03 11° 67° (ENE) 20:21:27 437.445
BRITE-PL 01 Jul 20:20:48 20:26:14 50° 261° (W) 20:31:25 437.365/2234.400
CUSAT 1 01 Jul 20:22:56 20:23:38 11° 268° (W) 20:24:13 437.405
HO-68 01 Jul 20:26:27 20:33:36 81° 74° (ENE) 20:40:47 435.675
SEEDS 01 Jul 20:35:45 20:39:52 65° 76° (ENE) 20:44:02 437.485
CINEMA 3 01 Jul 20:43:05 20:47:32 49° 75° (ENE) 20:51:49 145.822/145.860
AUBIESAT-1 01 Jul 20:47:33 20:51:08 27° 101° (E) 20:54:59 437.475
Oscar 11 01 Jul 20:47:53 20:51:24 26° 71° (ENE) 20:55:00 145.826/435.025
SRMSAT 01 Jul 20:48:03 20:51:27 16° 178° (S) 20:54:52 437.500
AAUSAT CUBESAT 2 01 Jul 20:54:39 20:58:45 73° 77° (ENE) 21:02:54 437.432
FUNcube-1 01 Jul 21:09:49 21:13:14 25° 72° (ENE) 21:16:42 145.935
DOVE 4 01 Jul 21:12:03 21:16:41 36° 263° (W) 21:21:03 437.250
UWE-3 01 Jul 21:13:27 21:17:24 37° 74° (ENE) 21:21:19 435.000/436.395/437.385
HUMSAT D 01 Jul 21:18:05 21:19:51 13° 68° (ENE) 21:21:47 437.325/437.525
COMPASS 1 01 Jul 21:18:13 21:22:13 47° 261° (W) 21:26:14 437.405
M-CUBED/EXP-1 PRIME 01 Jul 21:18:20 21:22:31 73° 106° (ESE) 21:27:02 437.505
CUTE 1.7 + AOD 2 01 Jul 21:18:44 21:22:27 29° 264° (W) 21:26:07 437.475
CANX-2 01 Jul 21:21:52 21:25:22 24° 265° (W) 21:28:47 2200.000
GONETS M04 01 Jul 21:22:40 21:31:10 60° 268° (W) 21:39:37
STRAND 1 01 Jul 21:25:02 21:26:52 12° 297° (WNW) 21:28:22 437.568
DELFI C3 01 Jul 21:31:28 21:35:22 56° 76° (ENE) 21:39:19 145.870
VELOX 1 01 Jul 21:37:00 21:37:40 10° 65° (ENE) 21:38:37 145.980
Cosmos 2499 01 Jul 21:43:05 21:50:21 41° 76° (ENE) 21:58:13 435.465 / 435.565
CUBEBUG 2 01 Jul 21:52:03 21:56:22 56° 260° (W) 22:00:33 437.445
JUGNU 01 Jul 21:52:31 21:53:34 10° 193° (SSW) 21:54:30 437.505
DX 1 01 Jul 21:54:37 21:58:29 32° 71° (ENE) 22:02:24 434.975-435.025
50 SAT 01 Jul 21:56:50 21:59:17 17° 70° (ENE) 22:01:51 437.505
ZACube-1 01 Jul 22:07:35 22:11:49 62° 259° (W) 22:15:59 437.345
ANTELSAT 01 Jul 22:14:40 22:17:13 16° 92° (E) 22:19:59 437.575/2403.000
HO-68 01 Jul 22:18:02 22:22:13 15° 271° (W) 22:25:56 435.675
AISAT 01 Jul 22:19:29 22:23:29 33° 72° (ENE) 22:27:31 437.250
UKube-1 01 Jul 22:19:44 22:23:58 57° 74° (ENE) 22:28:16 .
AUBIESAT-1 01 Jul 22:22:19 22:25:47 25° 293° (WNW) 22:29:21 437.475
CINEMA 3 01 Jul 22:22:42 22:25:01 13° 269° (W) 22:27:02 145.822/145.860
Oscar 11 01 Jul 22:24:06 22:27:34 23° 266° (W) 22:30:56 145.826/435.025
TIGRISAT 01 Jul 22:27:48 22:31:05 21° 94° (E) 22:34:31 435.000
SRMSAT 01 Jul 22:36:58 22:39:51 14° 188° (S) 22:42:42 437.500
ESTCUBE 1 01 Jul 22:40:33 22:44:37 35° 72° (ENE) 22:48:47 437.505/2401.250
FUNcube-1 01 Jul 22:46:08 22:49:32 22° 265° (W) 22:52:48 145.935
CUBEBUG 1 01 Jul 22:46:55 22:50:54 34° 72° (ENE) 22:54:56 437.445
HUMSAT D 01 Jul 22:51:17 22:55:15 44° 261° (W) 22:59:11 437.325/437.525
UWE-3 01 Jul 22:51:29 22:54:06 15° 268° (W) 22:56:32 435.000/436.395/437.385
QB50P1 01 Jul 22:53:30 22:56:04 16° 92° (E) 22:58:48 145.935-145.965
UNISAT 6 01 Jul 23:05:25 23:09:46 61° 101° (E) 23:14:11 437.425
NANOSAT C BR1 01 Jul 23:08:16 23:11:38 24° 95° (E) 23:15:05 145.865
VELOX 1 01 Jul 23:09:16 23:13:43 68° 259° (WSW) 23:18:10 145.980
DUCHIFAT 1 01 Jul 23:16:04 23:19:42 29° 96° (E) 23:23:22 145.980
POLYITAN 1 01 Jul 23:17:10 23:20:55 31° 97° (E) 23:24:43 437.675
TISAT 1 01 Jul 23:19:58 23:22:05 14° 68° (ENE) 23:24:25 437.305
50 SAT 01 Jul 23:30:24 23:33:44 27° 264° (W) 23:37:02 437.505
DX 1 01 Jul 23:31:33 23:34:48 19° 266° (W) 23:37:55 434.975-435.025
Cosmos 2499 01 Jul 23:36:23 23:43:26 36° 271° (W) 23:50:45 435.465 / 435.565
BUGSAT 1 01 Jul 23:46:06 23:49:58 42° 98° (E) 23:53:48 437.445
QB50P2 01 Jul 23:47:02 23:51:15 77° 102° (ESE) 23:55:27 145.880/145.840
POPSAT HIP 1 01 Jul 23:48:32 23:52:45 77° 102° (ESE) 23:56:56 437.405
ANTELSAT 01 Jul 23:50:06 23:54:11 39° 287° (WNW) 23:58:20 437.575/2403.000
AISAT 01 Jul 23:56:50 00:00:09 19° 267° (W) 00:03:19 437.250
UKube-1 01 Jul 23:59:35 00:00:32 10° 270° (W) 00:01:11 .
SPROUT 01 Jul 23:59:59 00:04:15 63° 76° (ENE) 00:08:32 437.525
TIGRISAT 02 Jul 00:04:04 00:07:52 29° 288° (WNW) 00:11:38 435.000
SWISSCUBE 02 Jul 00:15:31 00:16:50 11° 64° (ENE) 00:18:27 437.505
ESTCUBE 1 02 Jul 00:18:21 00:21:37 19° 267° (W) 00:24:46 437.505/2401.250
ITUPSAT 1 02 Jul 00:19:29 00:20:43 11° 64° (ENE) 00:22:15 437.325
CUBEBUG 1 02 Jul 00:24:10 00:27:22 19° 267° (W) 00:30:25 437.445
QB50P1 02 Jul 00:28:14 00:32:04 34° 287° (WNW) 00:35:52 145.935-145.965
NANOSAT C BR1 02 Jul 00:44:00 00:47:25 23° 289° (WNW) 00:50:43 145.865
UNISAT 6 02 Jul 00:44:50 00:46:07 11° 293° (WNW) 00:47:09 437.425
DUCHIFAT 1 02 Jul 00:52:15 00:55:21 20° 290° (WNW) 00:58:19 145.980
TISAT 1 02 Jul 00:53:27 00:57:32 44° 261° (W) 01:01:36 437.305
POLYITAN 1 02 Jul 00:53:41 00:56:38 18° 291° (WNW) 00:59:28 437.675
PCSat 02 Jul 01:21:21 01:26:34 46° 58° (ENE) 01:31:46 145.827
Cosmos 2491 02 Jul 01:21:29 01:27:22 20° 65° (ENE) 01:33:41 435.465 / 435.565
BUGSAT 1 02 Jul 01:23:05 01:25:06 13° 292° (WNW) 01:26:54 437.445
RS-15 02 Jul 01:28:42 01:37:47 34° 107° (ESE) 01:47:21 29.354- 29.394
BEESAT 02 Jul 01:34:16 01:39:00 73° 75° (ENE) 01:43:48 436.000
SWISSCUBE 02 Jul 01:49:24 01:54:10 71° 258° (WSW) 01:58:58 437.505
ITUPSAT 1 02 Jul 01:53:18 01:58:04 72° 259° (W) 02:02:53 437.325
Gurwin Techsat 1B 02 Jul 01:54:58 01:57:45 15° 90° (E) 02:00:49 435.225
YUBILEINY 02 Jul 01:57:00 02:00:29 14° 80° (E) 02:04:40 435.215
KKS-1 02 Jul 01:58:44 02:01:57 21° 69° (ENE) 02:05:19 437.445
Oscar 19 02 Jul 02:10:31 02:15:39 81° 103° (ESE) 02:20:48 437.125/150
SO-50 02 Jul 02:14:01 02:18:48 48° 55° (NE) 02:23:31 436.795
ITAMSAT 1 02 Jul 02:16:35 02:20:38 23° 94° (E) 02:24:48 435.822/435.867
JAS-2 02 Jul 02:35:01 02:37:33 13° 89° (E) 02:40:44 435.910
AIST 1 02 Jul 02:48:15 02:52:21 39° 78° (ENE) 02:56:25
STARS 02 Jul 02:56:36 03:00:53 54° 75° (ENE) 03:05:12 437.465
AO-7 02 Jul 03:02:35 03:05:46 13° 87° (E) 03:09:41 29.400- 29.500
PCSat 02 Jul 03:05:38 03:09:41 21° 253° (WSW) 03:13:32 145.827
Cosmos 2491 02 Jul 03:16:35 03:25:19 76° 266° (W) 03:33:58 435.465 / 435.565
MOZHAYETS 4 02 Jul 03:32:27 03:35:43 20° 69° (ENE) 03:39:07
Gurwin Techsat 1B 02 Jul 03:32:57 03:38:11 59° 287° (WNW) 03:43:24 435.225
KKS-1 02 Jul 03:34:24 03:38:25 32° 263° (W) 03:42:24 437.445
RS-15 02 Jul 03:38:49 03:49:35 61° 306° (NW) 04:00:40 29.354- 29.394
YUBILEINY 02 Jul 03:47:31 03:56:13 85° 94° (E) 04:04:57 435.215
Oscar 19 02 Jul 03:52:52 03:54:25 11° 297° (WNW) 03:55:39 437.125/150
ITAMSAT 1 02 Jul 03:55:28 04:00:16 37° 289° (WNW) 04:04:58 435.822/435.867
SO-50 02 Jul 03:55:37 03:59:00 18° 250° (WSW) 04:02:11 436.795
